[[{"header":{"parameterUnit":"m.s-1","parameterCategory":1,"la1":30.2991,"la2":30.254,"lo1":-89.0895,"lo2":-89.0444,"dy":0.0017,"dx":0.0017,"nx":28,"ny":28,"refTime":"2025-11-23T03:00:00:Z","depth":0,"parameterNumber":2,"parameterNumberName":"U-component_of_WINDS"},"data":[0,0,0,0,0,0,0,0,0,0,0,0,0,0,0,0,0,0,0,0,0,0,0,0,0,0,0,0,0,0,0,0,0,0,0,0,0,0,0,0,0,0,0,0,0,0,0,0,0,0,0,0,0,0,0,0,0,0,-0.2401,-0.2401,0,-0.2324,-0.2323,-0.2322,-0.2281,-0.2281,-0.2281,-0.2281,-0.2199,-0.2197,-0.2195,0,0,0,0,0,0,0,0,0,0,0,0,0,-0.2515,-0.2513,-0.2401,-0.2401,-0.24,-0.2324,-0.2323,-0.2321,-0.2281,-0.2281,-0.2281,-0.2281,-0.22,-0.2197,-0.2195,0,0,0,0,0,0,0,0,0,0,0,0,0,-0.2454,-0.2512,-0.2402,-0.237,-0.2367,-0.2324,-0.2323,-0.2321,-0.2281,-0.2281,-0.2281,-0.2281,-0.2201,-0.2198,-0.2195,-0.2176,0,0,-0.2185,-0.2183,0,0,0,0,0,0,0,0,-0.2458,-0.245,-0.2376,-0.2372,-0.2368,-0.2312,-0.2333,-0.2273,-0.2281,-0.2314,-0.2281,-0.2281,-0.2237,-0.2231,-0.2216,-0.2173,-0.2169,-0.2185,-0.2183,-0.2181,-0.218,0,0,0,0,0,0,0,-0.2462,-0.2453,-0.2371,-0.2375,-0.237,-0.236,-0.2351,-0.2321,-0.2276,-0.2311,-0.2308,-0.2299,-0.2235,-0.2219,-0.2214,-0.2168,-0.2185,-0.2182,-0.218,-0.2179,-0.2107,-0.2107,0,0,0,0,0,0,-0.2471,-0.2457,-0.2373,-0.2368,-0.2414,-0.2358,-0.2348,-0.233,-0.2277,-0.2268,-0.2299,-0.2297,-0.2225,-0.2218,-0.2211,-0.2187,-0.2181,-0.2178,-0.2176,-0.2107,-0.2107,-0.2107,0,0,0,0,0,0,-0.2474,-0.2464,-0.2376,-0.2412,-0.24,-0.2356,-0.2336,-0.2329,-0.2313,-0.2268,-0.226,-0.2292,-0.2224,-0.2215,-0.2186,-0.2184,-0.2177,-0.2174,-0.2107,-0.2107,-0.2107,-0.2139,0,0,0,0,0,0,-0.2477,-0.2465,-0.2458,-0.2412,-0.2398,-0.2353,-0.2336,-0.2327,-0.2308,-0.2305,-0.2259,-0.2251,-0.2224,-0.2191,-0.2183,-0.2179,-0.2171,-0.2107,-0.2107,-0.2107,-0.2138,-0.214,-0.2142,0,0,0,0,0,-0.2481,-0.2469,-0.2458,-0.2448,-0.2388,-0.2353,-0.2345,-0.2314,-0.2308,-0.23,-0.2272,-0.2252,-0.2185,-0.2188,-0.2179,-0.2174,-0.2107,-0.2107,-0.2107,-0.2137,-0.214,-0.2142,0,0,0,0,0,0,-0.2515,-0.2462,-0.2449,-0.2422,-0.2392,-0.2346,-0.2335,-0.2317,-0.2288,-0.2286,-0.2249,-0.2239,-0.2213,-0.2191,-0.2195,-0.2155,-0.2144,-0.2143,-0.217,-0.2172,-0.2174,-0.218,-0.2169,0,0,0,0,0,-0.252,-0.2496,-0.2451,-0.2431,-0.2417,-0.2379,-0.2362,-0.2341,-0.2309,-0.2296,-0.2265,-0.2234,-0.2206,-0.2188,-0.2159,-0.2135,-0.2125,-0.2127,-0.2129,-0.2131,-0.213,-0.2117,-0.2118,-0.2108,-0.2108,-0.2108,0,0,-0.2528,-0.2496,-0.2483,-0.2437,-0.2411,-0.2388,-0.2368,-0.2343,-0.2325,-0.2292,-0.2262,-0.2239,-0.2202,-0.2175,-0.2162,-0.2155,-0.2131,-0.2131,-0.2133,-0.2131,-0.2117,-0.2118,-0.2119,-0.2108,-0.2108,-0.2108,0,0,-0.2531,-0.2505,-0.2486,-0.2461,-0.2423,-0.2398,-0.2394,-0.2351,-0.2334,-0.2305,-0.2279,-0.2257,-0.2209,-0.2185,-0.2166,-0.2162,-0.2144,-0.2154,-0.2164,-0.2152,-0.2153,-0.2153,-0.2153,-0.2153,-0.2153,-0.2153,-0.2153,0,-0.2546,-0.2509,-0.2478,-0.2455,-0.2436,-0.2406,-0.2387,-0.2364,-0.2319,-0.2306,-0.23,-0.2241,-0.2214,-0.2182,-0.2181,-0.2166,-0.2161,-0.2159,-0.2155,-0.2155,-0.2155,-0.2155,-0.2155,-0.2154,-0.2154,-0.2154,-0.2154,0,-0.253,-0.2505,-0.2495,-0.2453,-0.2433,-0.2412,-0.2378,-0.2361,-0.2342,-0.2318,-0.2289,-0.2256,-0.2221,-0.2212,-0.2192,-0.2177,-0.2175,-0.2162,-0.2151,-0.2158,-0.2157,-0.2157,-0.2157,-0.2156,-0.2155,-0.2155,0,0,-0.2551,-0.2494,-0.249,-0.2472,-0.2429,-0.2409,-0.2388,-0.2355,-0.2341,-0.2311,-0.2293,-0.2254,-0.2243,-0.2222,-0.22,-0.2189,-0.219,-0.2178,-0.2177,-0.2182,-0.2172,-0.2182,-0.2183,-0.2178,-0.2178,-0.2177,-0.2176,0,-0.2548,-0.2508,-0.2481,-0.2452,-0.2429,-0.2401,-0.2382,-0.2354,-0.2332,-0.2309,-0.2284,-0.2258,-0.2244,-0.2232,-0.222,-0.2192,-0.2188,-0.2192,-0.216,-0.216,-0.2171,-0.2182,-0.2191,-0.2192,-0.2175,-0.2175,-0.2175,0,-0.2539,-0.2512,-0.2481,-0.2443,-0.2432,-0.2416,-0.2384,-0.2363,-0.2331,-0.2316,-0.2293,-0.2271,-0.2248,-0.224,-0.2207,-0.2211,-0.2196,-0.2181,-0.218,-0.2176,-0.2168,-0.2178,-0.2191,-0.2191,-0.2174,-0.2174,-0.2174,0,-0.2559,-0.2514,-0.249,-0.2475,-0.2429,-0.2419,-0.2399,-0.2367,-0.235,-0.2322,-0.2311,-0.2281,-0.2264,-0.2241,-0.2212,-0.2209,-0.2183,-0.2172,-0.217,-0.2171,-0.2166,-0.2166,-0.2176,-0.2156,-0.2156,-0.2156,-0.2156,0,-0.2559,-0.2541,-0.2499,-0.2484,-0.2464,-0.2433,-0.2413,-0.2391,-0.2364,-0.2345,-0.2318,-0.2301,-0.2264,-0.2242,-0.2219,-0.2196,-0.2189,-0.2176,-0.217,-0.2178,-0.218,-0.2168,-0.2168,-0.2156,-0.2156,-0.2156,-0.2156,0,-0.2576,-0.2547,-0.2519,-0.2479,-0.2469,-0.2456,-0.2421,-0.2406,-0.2383,-0.236,-0.2352,-0.2316,-0.2289,-0.2258,-0.2221,-0.2205,-0.2185,-0.2176,-0.2196,-0.2193,-0.2193,-0.2194,-0.2196,-0.2195,-0.2175,-0.2175,-0.2175,0,-0.2578,-0.2564,-0.2523,-0.2509,-0.2491,-0.2468,-0.245,-0.242,-0.2403,-0.2367,-0.2356,-0.2328,-0.2304,-0.2262,-0.2232,-0.2204,-0.2195,-0.2198,-0.219,-0.22,-0.2196,-0.2197,-0.2196,-0.22,-0.22,-0.22,-0.2201,0,-0.2585,-0.2572,-0.2548,-0.252,-0.2501,-0.2477,-0.2451,-0.2441,-0.2406,-0.2388,-0.2361,-0.2343,-0.2306,-0.2278,-0.2247,-0.2226,-0.2208,-0.2203,-0.2202,-0.221,-0.2223,-0.2217,-0.2202,-0.2203,-0.2203,-0.2203,-0.2203,-0.2202,-0.2595,-0.2582,-0.2552,-0.2527,-0.2505,-0.2483,-0.2468,-0.2444,-0.2421,-0.2389,-0.2372,-0.2346,-0.2316,-0.2272,-0.2253,-0.2232,-0.2226,-0.2223,-0.2222,-0.2222,-0.2225,-0.2226,-0.2226,-0.2226,-0.2226,-0.2226,-0.2226,0,-0.2601,-0.2581,-0.2558,-0.2525,-0.2506,-0.2491,-0.2464,-0.2448,-0.2426,-0.24,-0.2377,-0.2348,-0.2321,-0.2291,-0.2262,-0.2252,-0.2243,-0.2246,-0.2246,-0.2242,-0.2232,-0.2237,-0.2254,-0.2254,-0.2254,-0.2254,-0.2254,-0.2254,-0.2602,-0.258,-0.2564,-0.2531,-0.2511,-0.2486,-0.2471,-0.2451,-0.2431,-0.2399,-0.2377,-0.2358,-0.233,-0.2301,-0.2276,-0.2268,-0.2259,-0.2265,-0.2254,-0.2245,-0.2243,-0.224,-0.2245,-0.2263,-0.2263,-0.2266,-0.2266,-0.2266]},{"header":{"parameterUnit":"m.s-1","parameterCategory":1,"la1":30.2991,"la2":30.254,"lo1":-89.0895,"lo2":-89.0444,"dy":0.0017,"dx":0.0017,"nx":28,"ny":28,"refTime":"2025-11-23T03:00:00:Z","depth":0,"parameterNumber":3,"parameterNumberName":"V-component_of_WINDS"},"data":[0,0,0,0,0,0,0,0,0,0,0,0,0,0,0,0,0,0,0,0,0,0,0,0,0,0,0,0,0,0,0,0,0,0,0,0,0,0,0,0,0,0,0,0,0,0,0,0,0,0,0,0,0,0,0,0,0,0,0.8248,0.8248,0,0.8219,0.8219,0.8219,0.8153,0.8152,0.815,0.8149,0.8121,0.8121,0.8122,0,0,0,0,0,0,0,0,0,0,0,0,0,0.8247,0.8247,0.8248,0.8248,0.8247,0.8219,0.8219,0.8218,0.8153,0.8151,0.815,0.8148,0.8121,0.8121,0.8122,0,0,0,0,0,0,0,0,0,0,0,0,0,0.8236,0.8248,0.8248,0.8211,0.8208,0.8219,0.8219,0.8218,0.8153,0.8151,0.8149,0.8148,0.8121,0.8121,0.8122,0.8168,0,0,0.8124,0.8125,0,0,0,0,0,0,0,0,0.8237,0.8236,0.8217,0.8214,0.821,0.8187,0.8208,0.8201,0.8154,0.8174,0.8149,0.8147,0.8145,0.8143,0.8143,0.8166,0.8165,0.8125,0.8125,0.8125,0.8126,0,0,0,0,0,0,0,0.8237,0.8237,0.8237,0.8217,0.8212,0.8196,0.8193,0.8207,0.8171,0.8172,0.8167,0.8165,0.8142,0.8142,0.8141,0.8165,0.8125,0.8125,0.8126,0.8126,0.8221,0.8223,0,0,0,0,0,0,0.8243,0.8238,0.8238,0.8236,0.8218,0.8198,0.8194,0.8197,0.8171,0.8165,0.8167,0.8162,0.8142,0.8141,0.814,0.8189,0.8125,0.8126,0.8127,0.8219,0.8222,0.8224,0,0,0,0,0,0,0.8244,0.8244,0.8239,0.8235,0.8234,0.82,0.8204,0.8197,0.8197,0.8167,0.816,0.8172,0.814,0.8139,0.816,0.8187,0.8126,0.8127,0.8217,0.822,0.8223,0.8288,0,0,0,0,0,0,0.8244,0.8244,0.8261,0.8236,0.8234,0.8259,0.8206,0.8198,0.8198,0.8191,0.817,0.8165,0.8138,0.816,0.8161,0.8187,0.8128,0.8214,0.8218,0.8222,0.8284,0.8293,0.8302,0,0,0,0,0,0.8244,0.8282,0.8262,0.8263,0.8254,0.8261,0.826,0.8228,0.8201,0.8217,0.8197,0.8166,0.8185,0.8162,0.8164,0.819,0.8212,0.8217,0.8222,0.828,0.8292,0.8302,0,0,0,0,0,0,0.8311,0.8278,0.8256,0.8287,0.8277,0.825,0.8269,0.8242,0.824,0.8234,0.8196,0.8191,0.8217,0.8207,0.8182,0.8232,0.8193,0.8199,0.8237,0.8248,0.8257,0.8257,0.8128,0,0,0,0,0,0.833,0.8338,0.8308,0.8338,0.8335,0.8303,0.8305,0.8281,0.827,0.8266,0.8248,0.8238,0.8242,0.8245,0.8247,0.8283,0.8276,0.8302,0.8311,0.8319,0.8322,0.8338,0.8348,0.8239,0.8239,0.8239,0,0,0.8368,0.8351,0.8358,0.8351,0.8341,0.835,0.83,0.8312,0.8318,0.8268,0.8285,0.8273,0.8259,0.8287,0.8299,0.8279,0.8351,0.8324,0.8331,0.833,0.8343,0.8354,0.8363,0.8243,0.8242,0.8242,0,0,0.844,0.843,0.8451,0.8442,0.8427,0.8406,0.8411,0.8388,0.8377,0.8395,0.8356,0.8363,0.8371,0.8362,0.8359,0.8428,0.8398,0.843,0.8476,0.8491,0.85,0.8507,0.8529,0.8537,0.8435,0.8435,0.8435,0,0.8489,0.85,0.8467,0.848,0.8477,0.8432,0.8454,0.8447,0.8433,0.8432,0.8411,0.8418,0.8406,0.843,0.8447,0.8447,0.845,0.8431,0.8501,0.8508,0.8515,0.8535,0.8543,0.8439,0.8438,0.8438,0.8438,0,0.856,0.8568,0.8588,0.8574,0.8575,0.8593,0.8561,0.8566,0.8542,0.8523,0.8541,0.8526,0.8522,0.8527,0.8505,0.8547,0.8535,0.8509,0.8468,0.8529,0.8547,0.8555,0.8444,0.8443,0.8442,0.8441,0,0,0.8671,0.8639,0.8646,0.8639,0.8619,0.8625,0.8641,0.8636,0.8639,0.8633,0.8643,0.8651,0.8625,0.8621,0.8598,0.8612,0.8664,0.8583,0.8582,0.8596,0.8706,0.8724,0.8734,0.8646,0.8647,0.8648,0.8706,0,0.8736,0.8759,0.873,0.8759,0.8765,0.8723,0.8736,0.8725,0.8709,0.8711,0.8693,0.8697,0.8665,0.8662,0.8675,0.8655,0.8685,0.8651,0.8653,0.8654,0.8654,0.8743,0.8762,0.8818,0.8713,0.8715,0.8716,0,0.8815,0.8809,0.8839,0.8815,0.8817,0.8829,0.8822,0.8826,0.8813,0.88,0.8795,0.8767,0.878,0.8745,0.8761,0.8738,0.8738,0.8729,0.873,0.8726,0.8686,0.8738,0.8835,0.8842,0.8727,0.8726,0.8725,0,0.8888,0.889,0.8907,0.8902,0.8876,0.8885,0.8875,0.886,0.8859,0.8853,0.8852,0.8849,0.8846,0.8844,0.8816,0.8793,0.8835,0.8797,0.8822,0.8823,0.883,0.8829,0.8925,0.8836,0.8836,0.8836,0.8836,0,0.8962,0.8981,0.8939,0.8949,0.8969,0.8935,0.8956,0.8942,0.8928,0.8935,0.89,0.8906,0.8871,0.8873,0.8852,0.8867,0.8867,0.8856,0.8849,0.8857,0.8858,0.8853,0.8847,0.8838,0.8838,0.8837,0.8837,0,0.9046,0.9019,0.9034,0.9008,0.9002,0.9018,0.8995,0.9003,0.8985,0.8993,0.8993,0.8964,0.8965,0.8938,0.8935,0.892,0.8944,0.8932,0.8947,0.8942,0.8967,0.8964,0.906,0.907,0.8979,0.898,0.8981,0,0.9092,0.9106,0.9081,0.9082,0.9073,0.9076,0.9074,0.9043,0.9042,0.9028,0.9037,0.9036,0.9032,0.9037,0.9015,0.9012,0.8998,0.9032,0.8997,0.9003,0.8994,0.8992,0.8992,0.9038,0.9039,0.904,0.9041,0,0.9177,0.9163,0.9161,0.9155,0.9154,0.9148,0.9139,0.9143,0.9107,0.9109,0.9109,0.9107,0.9103,0.9101,0.9093,0.9083,0.9055,0.9052,0.9057,0.9063,0.907,0.9063,0.8963,0.9049,0.9048,0.9048,0.9047,0.9047,0.9241,0.925,0.9233,0.9232,0.9222,0.9215,0.9221,0.9202,0.9202,0.9195,0.9177,0.918,0.9166,0.9153,0.9145,0.9146,0.9129,0.9138,0.9139,0.914,0.9144,0.9073,0.9145,0.9145,0.9145,0.9145,0.9144,0,0.932,0.9307,0.9307,0.9295,0.9295,0.927,0.9259,0.926,0.9263,0.9252,0.9249,0.9249,0.9247,0.9225,0.9221,0.9226,0.9213,0.9225,0.9223,0.922,0.9161,0.9155,0.9236,0.9236,0.9236,0.9236,0.9236,0.9236,0.936,0.9373,0.9357,0.9365,0.9352,0.9354,0.9349,0.9342,0.9333,0.9334,0.9332,0.9318,0.9302,0.9296,0.9292,0.9286,0.9285,0.9301,0.929,0.9234,0.9225,0.9216,0.9211,0.9302,0.9302,0.9349,0.9349,0.9349]}]]